User: anonymous   Login
Location: Unspecified
(0.0000°N, 0.0000°E)
Time: 03:20:07
(UTC+00:00)
Language:

STARLINK-11145 [DTC] - Orbit

View from above orbital plane
View from above orbital plane
View from above satellite
View from above satellite

Ground track
Ground track

The orbit is defined by the following mean orbital elements,

1 59945U          26145.42347178 +.00000000 +00000-0 +44979-5 0 00007
2 59945  53.1594 233.3027 0000316  26.2158 333.8876 15.69699284    02
Epoch (UTC): 25 May 2026 10:09:47
Eccentricity: 0.0000316
inclination: 53.1594°
perigee height: 360 km
apogee height: 360 km
right ascension of ascending node: 233.3027°
argument of perigee: 26.2158°
revolutions per day: 15.69699284
mean anomaly at epoch: 333.8876°

The dashed part of the orbit path shows where the satellite is in the earth's shadow,  

DLR